| time (UTC) | temp C | wind direction | speed KPH | gust KPH | rain 1hr cm | rain 24hr cm | rain mn cm | humidity % | barometer mb |
| 20260505000539 | 25 | 181 | 4.8 | 17.7 | 0.00 | 0.00 | 0.00 | 71 | 1012.2 |
| 20260505000045 | 25 | 178 | 8.0 | 19.3 | 0.00 | 0.00 | 0.00 | 71 | 1012.2 |
| 20260504235539 | 25 | 126 | 8.0 | 22.5 | 0.00 | 0.00 | 0.00 | 71 | 1012.1 |
| 20260504235038 | 25 | 131 | 8.0 | 22.5 | 0.00 | 0.00 | 0.00 | 70 | 1012.3 |
| 20260504234537 | 25 | 188 | 4.8 | 22.5 | 0.00 | 0.00 | 0.00 | 70 | 1012.3 |
| 20260504234036 | 25 | 183 | 8.0 | 22.5 | 0.00 | 0.00 | 0.00 | 70 | 1012.5 |
| 20260504233540 | 25 | 190 | 6.4 | 16.1 | 0.00 | 0.00 | 0.00 | 70 | 1012.6 |
| 20260504233042 | 25 | 182 | 8.0 | 16.1 | 0.00 | 0.00 | 0.00 | 70 | 1012.6 |
| 20260504232536 | 25 | 241 | 4.8 | 14.5 | 0.00 | 0.00 | 0.00 | 70 | 1012.7 |
| 20260504232035 | 25 | 144 | 6.4 | 16.1 | 0.00 | 0.00 | 0.00 | 69 | 1012.6 |
| 20260504231541 | 25 | 167 | 8.0 | 16.1 | 0.00 | 0.00 | 0.00 | 69 | 1012.6 |
| 20260504231034 | 25 | 188 | 8.0 | 16.1 | 0.00 | 0.00 | 0.00 | 69 | 1012.8 |
| 20260504230534 | 25 | 140 | 6.4 | 20.9 | 0.00 | 0.00 | 0.00 | 69 | 1012.8 |
| 20260504230041 | 25 | 167 | 6.4 | 20.9 | 0.00 | 0.00 | 0.00 | 68 | 1012.7 |
| 20260504225537 | 25 | 140 | 4.8 | 16.1 | 0.00 | 0.00 | 0.00 | 69 | 1012.9 |
| 20260504225034 | 25 | 200 | 8.0 | 14.5 | 0.00 | 0.00 | 0.00 | 68 | 1013.0 |
| 20260504224532 | 25 | 167 | 1.6 | 19.3 | 0.00 | 0.00 | 0.00 | 68 | 1012.9 |
| 20260504224031 | 25 | 195 | 6.4 | 19.3 | 0.00 | 0.00 | 0.00 | 68 | 1013.0 |
| 20260504223530 | 25 | 190 | 4.8 | 16.1 | 0.00 | 0.00 | 0.00 | 68 | 1013.0 |
| 20260504223031 | 25 | 195 | 6.4 | 20.9 | 0.00 | 0.00 | 0.00 | 68 | 1013.0 |
| 20260504222529 | 26 | 233 | 8.0 | 22.5 | 0.00 | 0.00 | 0.00 | 68 | 1013.0 |
| 20260504222029 | 26 | 219 | 8.0 | 19.3 | 0.00 | 0.00 | 0.00 | 67 | 1013.2 |
| 20260504221529 | 26 | 155 | 6.4 | 19.3 | 0.00 | 0.00 | 0.00 | 66 | 1013.3 |
| 20260504221028 | 26 | 185 | 8.0 | 19.3 | 0.00 | 0.00 | 0.00 | 66 | 1013.3 |
| 20260504220528 | 26 | 148 | 3.2 | 16.1 | 0.00 | 0.00 | 0.00 | 66 | 1013.4 |
| 20260504220030 | 26 | 169 | 4.8 | 16.1 | 0.00 | 0.00 | 0.00 | 65 | 1013.5 |
| 20260504215527 | 26 | 227 | 4.8 | 12.9 | 0.00 | 0.00 | 0.00 | 65 | 1013.4 |
| 20260504215027 | 26 | 190 | 6.4 | 16.1 | 0.00 | 0.00 | 0.00 | 64 | 1013.5 |
| 20260504214528 | 26 | 160 | 6.4 | 19.3 | 0.00 | 0.00 | 0.00 | 64 | 1013.5 |
| 20260504214030 | 26 | 192 | 8.0 | 16.1 | 0.00 | 0.00 | 0.00 | 64 | 1013.5 |
| 20260504213526 | 26 | 203 | 8.0 | 16.1 | 0.00 | 0.00 | 0.00 | 64 | 1013.6 |
| 20260504213025 | 26 | 201 | 8.0 | 19.3 | 0.00 | 0.00 | 0.00 | 63 | 1013.7 |
| 20260504212525 | 26 | 186 | 6.4 | 20.9 | 0.00 | 0.00 | 0.00 | 63 | 1013.6 |
| 20260504212025 | 26 | 184 | 8.0 | 19.3 | 0.00 | 0.00 | 0.00 | 62 | 1013.7 |
| 20260504211525 | 26 | 157 | 4.8 | 17.7 | 0.00 | 0.00 | 0.00 | 62 | 1013.7 |
| 20260504211026 | 27 | 169 | 6.4 | 17.7 | 0.00 | 0.00 | 0.00 | 62 | 1013.7 |
| 20260504210524 | 27 | 168 | 4.8 | 25.7 | 0.00 | 0.00 | 0.00 | 62 | 1013.7 |
| 20260504210027 | 27 | 167 | 9.7 | 25.7 | 0.00 | 0.00 | 0.00 | 61 | 1013.8 |
| 20260504205522 | 27 | 173 | 4.8 | 17.7 | 0.00 | 0.00 | 0.00 | 61 | 1014.0 |
| 20260504205020 | 27 | 188 | 6.4 | 17.7 | 0.00 | 0.00 | 0.00 | 60 | 1014.0 |
| 20260504204519 | 27 | 162 | 3.2 | 12.9 | 0.00 | 0.00 | 0.00 | 61 | 1014.0 |
| 20260504204020 | 27 | 195 | 3.2 | 12.9 | 0.00 | 0.00 | 0.00 | 61 | 1014.1 |
| 20260504203518 | 27 | 193 | 4.8 | 16.1 | 0.00 | 0.00 | 0.00 | 62 | 1014.2 |
| 20260504203023 | 27 | 152 | 4.8 | 17.7 | 0.00 | 0.00 | 0.00 | 62 | 1014.3 |
| 20260504202518 | 27 | 134 | 6.4 | 16.1 | 0.00 | 0.00 | 0.00 | 62 | 1014.4 |
| 20260504202017 | 27 | 241 | 9.7 | 16.1 | 0.00 | 0.00 | 0.00 | 62 | 1014.4 |
| 20260504201517 | 27 | 192 | 4.8 | 16.1 | 0.00 | 0.00 | 0.00 | 61 | 1014.5 |
| 20260504201023 | 27 | 183 | 4.8 | 16.1 | 0.00 | 0.00 | 0.00 | 61 | 1014.5 |
| 20260504200516 | 27 | 161 | 3.2 | 12.9 | 0.00 | 0.00 | 0.00 | 61 | 1014.7 |
| 20260504200016 | 27 | 198 | 4.8 | 14.5 | 0.00 | 0.00 | 0.00 | 60 | 1014.7 |
| 20260504195517 | 27 | 163 | 4.8 | 14.5 | 0.00 | 0.00 | 0.00 | 59 | 1014.8 |
| 20260504195015 | 27 | 190 | 4.8 | 11.3 | 0.00 | 0.00 | 0.00 | 61 | 1014.7 |
| 20260504194515 | 26 | 83 | 1.6 | 14.5 | 0.00 | 0.00 | 0.00 | 60 | 1014.8 |
| 20260504194013 | 26 | 122 | 6.4 | 14.5 | 0.00 | 0.00 | 0.00 | 59 | 1014.9 |
| 20260504193516 | 27 | 186 | 6.4 | 14.5 | 0.00 | 0.00 | 0.00 | 60 | 1015.1 |
| 20260504193016 | 27 | 131 | 1.6 | 12.9 | 0.00 | 0.00 | 0.00 | 60 | 1015.0 |
| 20260504192511 | 27 | 152 | 4.8 | 17.7 | 0.00 | 0.00 | 0.00 | 61 | 1015.0 |
| 20260504192011 | 26 | 189 | 1.6 | 14.5 | 0.00 | 0.00 | 0.00 | 61 | 1015.3 |
| 20260504191521 | 26 | 224 | 4.8 | 16.1 | 0.00 | 0.00 | 0.00 | 62 | 1015.2 |
| 20260504191012 | 26 | 195 | 8.0 | 19.3 | 0.00 | 0.00 | 0.00 | 61 | 1015.2 |
| 20260504190509 | 26 | 168 | 4.8 | 19.3 | 0.00 | 0.00 | 0.00 | 60 | 1015.4 |
| 20260504190009 | 27 | 210 | 6.4 | 17.7 | 0.00 | 0.00 | 0.00 | 59 | 1015.4 |
| 20260504185509 | 27 | 142 | 4.8 | 11.3 | 0.00 | 0.00 | 0.00 | 60 | 1015.4 |
| 20260504185008 | 27 | 178 | 4.8 | 12.9 | 0.00 | 0.00 | 0.00 | 59 | 1015.4 |
| 20260504184507 | 27 | 153 | 3.2 | 14.5 | 0.00 | 0.00 | 0.00 | 60 | 1015.4 |
| 20260504184007 | 27 | 205 | 4.8 | 17.7 | 0.00 | 0.00 | 0.00 | 59 | 1015.5 |
| 20260504183505 | 26 | 220 | 8.0 | 19.3 | 0.00 | 0.00 | 0.00 | 60 | 1015.5 |
| 20260504183004 | 26 | 150 | 3.2 | 17.7 | 0.00 | 0.00 | 0.00 | 61 | 1015.3 |
| 20260504182510 | 26 | 169 | 6.4 | 22.5 | 0.00 | 0.00 | 0.00 | 61 | 1015.4 |
| 20260504182006 | 26 | 178 | 6.4 | 22.5 | 0.00 | 0.00 | 0.00 | 61 | 1015.4 |
| 20260504181502 | 26 | 132 | 4.8 | 16.1 | 0.00 | 0.00 | 0.00 | 60 | 1015.7 |
| 20260504181001 | 26 | 149 | 6.4 | 17.7 | 0.00 | 0.00 | 0.00 | 60 | 1016.0 |
| 20260504180501 | 26 | 173 | 4.8 | 17.7 | 0.00 | 0.00 | 0.00 | 61 | 1015.8 |
| 20260504180100 | 26 | 164 | 4.8 | 14.5 | 0.00 | 0.00 | 0.00 | 61 | 1016.0 |
| 20260504175600 | 26 | 212 | 4.8 | 12.9 | 0.00 | 0.00 | 0.00 | 61 | 1016.2 |
| 20260504175059 | 26 | 215 | 4.8 | 14.5 | 0.00 | 0.00 | 0.00 | 60 | 1016.2 |
| 20260504174606 | 26 | 237 | 3.2 | 14.5 | 0.00 | 0.00 | 0.00 | 61 | 1016.0 |
| 20260504174057 | 25 | 209 | 4.8 | 16.1 | 0.00 | 0.00 | 0.00 | 62 | 1016.3 |
| 20260504173556 | 25 | 219 | 4.8 | 16.1 | 0.00 | 0.00 | 0.00 | 61 | 1016.4 |
| 20260504173058 | 25 | 190 | 6.4 | 17.7 | 0.00 | 0.00 | 0.00 | 61 | 1016.1 |
| 20260504172554 | 25 | 190 | 4.8 | 17.7 | 0.00 | 0.00 | 0.00 | 61 | 1016.4 |
| 20260504172054 | 25 | 173 | 11.3 | 17.7 | 0.00 | 0.00 | 0.00 | 60 | 1016.6 |
| 20260504171553 | 25 | 186 | 4.8 | 19.3 | 0.00 | 0.00 | 0.00 | 63 | 1016.7 |
| 20260504171052 | 25 | 183 | 9.7 | 19.3 | 0.00 | 0.00 | 0.00 | 62 | 1016.8 |
| 20260504170552 | 25 | 185 | 4.8 | 19.3 | 0.00 | 0.00 | 0.00 | 62 | 1016.7 |
| 20260504151029 | 23 | 189 | 6.4 | 17.7 | 0.00 | 0.00 | 0.00 | 68 | 1017.5 |
| 20260504150534 | 23 | 167 | 9.7 | 19.3 | 0.00 | 0.00 | 0.00 | 68 | 1017.7 |
| 20260504141019 | 21 | 180 | 4.8 | 12.9 | 0.00 | 0.00 | 0.00 | 69 | 1017.5 |
| 20260504140521 | 21 | 158 | 3.2 | 16.1 | 0.00 | 0.00 | 0.00 | 69 | 1017.4 |
| 20260504130502 | 18 | 157 | 1.6 | 4.8 | 0.00 | 0.00 | 0.00 | 75 | 1017.5 |
| 20260504110554 | 16 | 166 | 0.0 | 0.0 | 0.00 | 0.00 | 0.00 | 78 | 1017.1 |
| 20260504100549 | 16 | 170 | 0.0 | 0.0 | 0.00 | 0.00 | 0.00 | 76 | 1017.5 |
| 20260504081543 | 16 | 182 | 0.0 | 0.0 | 0.00 | 0.00 | 0.00 | 74 | 1018.0 |
| 20260504081038 | 16 | 182 | 0.0 | 0.0 | 0.00 | 0.00 | 0.00 | 74 | 1018.3 |
| 20260504080537 | 16 | 182 | 0.0 | 0.0 | 0.00 | 0.00 | 0.00 | 74 | 1018.4 |
| 20260504050515 | 18 | 166 | 0.0 | 0.0 | 0.00 | 0.00 | 0.00 | 68 | 1020.1 |
| 20260504050013 | 18 | 166 | 0.0 | 1.6 | 0.00 | 0.00 | 0.00 | 68 | 1020.0 |
| 20260504045512 | 18 | 166 | 0.0 | 1.6 | 0.00 | 0.00 | 0.00 | 68 | 1020.1 |
| 20260504045012 | 18 | 190 | 0.0 | 0.0 | 0.00 | 0.00 | 0.00 | 68 | 1020.1 |
| 20260504044515 | 18 | 150 | 0.0 | 0.0 | 0.00 | 0.00 | 0.00 | 68 | 1020.2 |
| 20260504044014 | 18 | 150 | 0.0 | 0.0 | 0.00 | 0.00 | 0.00 | 67 | 1020.3 |
| 20260504043512 | 18 | 150 | 0.0 | 0.0 | 0.00 | 0.00 | 0.00 | 67 | 1020.2 |
| 20260504043012 | 18 | 150 | 0.0 | 0.0 | 0.00 | 0.00 | 0.00 | 66 | 1020.3 |
| 20260504042512 | 18 | 148 | 0.0 | 0.0 | 0.00 | 0.00 | 0.00 | 66 | 1020.2 |
| 20260504042011 | 18 | 147 | 0.0 | 0.0 | 0.00 | 0.00 | 0.00 | 65 | 1020.2 |
| 20260504041511 | 18 | 171 | 0.0 | 0.0 | 0.00 | 0.00 | 0.00 | 65 | 1020.3 |
| 20260504041011 | 18 | 171 | 0.0 | 0.0 | 0.00 | 0.00 | 0.00 | 64 | 1020.4 |
| 20260504040511 | 19 | 171 | 0.0 | 0.0 | 0.00 | 0.00 | 0.00 | 64 | 1020.3 |
| 20260504040011 | 19 | 171 | 0.0 | 0.0 | 0.00 | 0.00 | 0.00 | 64 | 1020.2 |
| 20260504035512 | 19 | 171 | 0.0 | 3.2 | 0.00 | 0.00 | 0.00 | 63 | 1020.3 |
| 20260504035015 | 19 | 163 | 0.0 | 8.0 | 0.00 | 0.00 | 0.00 | 63 | 1020.1 |
| 20260504034511 | 20 | 169 | 0.0 | 8.0 | 0.00 | 0.00 | 0.00 | 62 | 1020.4 |
| 20260504034017 | 20 | 191 | 0.0 | 6.4 | 0.00 | 0.00 | 0.00 | 62 | 1020.4 |
| 20260504033509 | 20 | 169 | 0.0 | 6.4 | 0.00 | 0.00 | 0.00 | 62 | 1020.3 |
| 20260504033009 | 20 | 165 | 1.6 | 6.4 | 0.00 | 0.00 | 0.00 | 62 | 1020.4 |
| 20260504032510 | 20 | 175 | 0.0 | 6.4 | 0.00 | 0.00 | 0.00 | 61 | 1020.3 |
| 20260504032009 | 20 | 160 | 0.0 | 6.4 | 0.00 | 0.00 | 0.00 | 61 | 1020.4 |
| 20260504031510 | 20 | 177 | 0.0 | 4.8 | 0.00 | 0.00 | 0.00 | 61 | 1020.3 |
| 20260504031012 | 20 | 186 | 0.0 | 4.8 | 0.00 | 0.00 | 0.00 | 60 | 1020.3 |
| 20260504030509 | 20 | 163 | 0.0 | 0.0 | 0.00 | 0.00 | 0.00 | 60 | 1020.3 |
| 20260504030009 | 20 | 163 | 0.0 | 0.0 | 0.00 | 0.00 | 0.00 | 60 | 1020.0 |
| 20260504025509 | 20 | 161 | 0.0 | 6.4 | 0.00 | 0.00 | 0.00 | 59 | 1019.9 |
| 20260504025009 | 20 | 153 | 0.0 | 6.4 | 0.00 | 0.00 | 0.00 | 59 | 1020.0 |
| 20260504024508 | 20 | 166 | 0.0 | 4.8 | 0.00 | 0.00 | 0.00 | 59 | 1020.1 |
| 20260504024008 | 21 | 171 | 0.0 | 3.2 | 0.00 | 0.00 | 0.00 | 58 | 1020.0 |
| 20260504023508 | 21 | 132 | 0.0 | 9.7 | 0.00 | 0.00 | 0.00 | 58 | 1020.1 |
| 20260504023008 | 21 | 169 | 0.0 | 9.7 | 0.00 | 0.00 | 0.00 | 57 | 1020.1 |
| 20260504022513 | 21 | 174 | 1.6 | 11.3 | 0.00 | 0.00 | 0.00 | 57 | 1020.2 |
| 20260504022008 | 21 | 168 | 1.6 | 11.3 | 0.00 | 0.00 | 0.00 | 56 | 1020.1 |
| 20260504021509 | 21 | 171 | 1.6 | 11.3 | 0.00 | 0.00 | 0.00 | 56 | 1020.0 |
| 20260504021009 | 21 | 159 | 0.0 | 12.9 | 0.00 | 0.00 | 0.00 | 56 | 1020.0 |
| 20260504020507 | 21 | 183 | 3.2 | 17.7 | 0.00 | 0.00 | 0.00 | 56 | 1019.9 |
| 20260504020007 | 21 | 207 | 3.2 | 17.7 | 0.00 | 0.00 | 0.00 | 55 | 1020.0 |
| 20260504015508 | 21 | 198 | 3.2 | 16.1 | 0.00 | 0.00 | 0.00 | 54 | 1020.1 |
| 20260504015016 | 21 | 159 | 0.0 | 14.5 | 0.00 | 0.00 | 0.00 | 54 | 1020.0 |
| 20260504014507 | 21 | 163 | 6.4 | 16.1 | 0.00 | 0.00 | 0.00 | 54 | 1020.0 |
| 20260504014006 | 22 | 217 | 1.6 | 11.3 | 0.00 | 0.00 | 0.00 | 54 | 1019.9 |
| 20260504013507 | 22 | 138 | 1.6 | 9.7 | 0.00 | 0.00 | 0.00 | 53 | 1019.8 |
| 20260504013011 | 22 | 138 | 1.6 | 9.7 | 0.00 | 0.00 | 0.00 | 53 | 1019.8 |
| 20260504012508 | 22 | 127 | 1.6 | 14.5 | 0.00 | 0.00 | 0.00 | 52 | 1019.7 |
| 20260504012008 | 22 | 167 | 1.6 | 16.1 | 0.00 | 0.00 | 0.00 | 52 | 1019.6 |
| 20260504011505 | 22 | 209 | 1.6 | 11.3 | 0.00 | 0.00 | 0.00 | 51 | 1019.6 |
| 20260504011004 | 22 | 155 | 1.6 | 12.9 | 0.00 | 0.00 | 0.00 | 51 | 1019.6 |
| 20260504010510 | 22 | 180 | 3.2 | 12.9 | 0.00 | 0.00 | 0.00 | 51 | 1019.7 |
| 20260504010004 | 22 | 165 | 3.2 | 12.9 | 0.00 | 0.00 | 0.00 | 51 | 1019.6 |
| 20260504005505 | 22 | 187 | 0.0 | 9.7 | 0.00 | 0.00 | 0.00 | 50 | 1019.4 |
| 20260504005004 | 23 | 153 | 1.6 | 8.0 | 0.00 | 0.00 | 0.00 | 50 | 1019.5 |
| 20260504004506 | 23 | 168 | 1.6 | 8.0 | 0.00 | 0.00 | 0.00 | 50 | 1019.6 |
| 20260504004002 | 23 | 162 | 0.0 | 4.8 | 0.00 | 0.00 | 0.00 | 49 | 1019.6 |
| 20260504003502 | 23 | 159 | 0.0 | 11.3 | 0.00 | 0.00 | 0.00 | 49 | 1019.6 |
| 20260504003003 | 23 | 165 | 0.0 | 11.3 | 0.00 | 0.00 | 0.00 | 49 | 1019.6 |
| 20260504002502 | 23 | 173 | 0.0 | 8.0 | 0.00 | 0.00 | 0.00 | 48 | 1019.5 |
| 20260504002001 | 23 | 163 | 1.6 | 14.5 | 0.00 | 0.00 | 0.00 | 48 | 1019.6 |
| 20260504001502 | 23 | 155 | 1.6 | 14.5 | 0.00 | 0.00 | 0.00 | 47 | 1019.6 |
| 20260504001001 | 23 | 120 | 1.6 | 12.9 | 0.00 | 0.00 | 0.00 | 48 | 1019.4 |